Location: Caltech
(34.1382°N, 118.1253°W)
Time: 10:06:31
(UTC-08:00)

Cosmos 1606 - Visible Passes

Search period start: 19 February 2018 00:00
Search period end: 01 March 2018 00:00
Orbit: 505 x 531 km, 82.5° (Epoch: 19 February)

Date Brightness Start Highest point End Pass type
(mag) Time Alt. Az. Time Alt. Az. Time Alt. Az.
19 Feb 6.1 05:13:26 10° SE 05:15:44 15° E 05:18:02 10° NE visible
19 Feb 6.1 18:23:40 10° NW 18:25:37 14° W 18:27:37 10° WSW visible
20 Feb 6.2 04:59:48 10° ESE 05:01:32 13° E 05:03:15 10° ENE visible
20 Feb 6.0 18:08:57 10° NW 18:11:25 17° W 18:13:53 10° SW visible
21 Feb 6.5 04:46:40 10° E 04:47:20 10° E 04:47:58 10° ENE visible
23 Feb 2.7 05:50:21 10° SSW 05:54:05 56° W 05:57:50 10° N visible
24 Feb 2.6 05:36:01 10° SSW 05:39:48 70° W 05:43:37 10° N visible
25 Feb 2.6 05:21:44 10° S 05:25:33 87° WNW 05:29:21 10° N visible
26 Feb 2.8 05:07:29 10° S 05:11:17 76° E 05:15:04 10° N visible
27 Feb 3.2 04:53:16 10° S 04:57:01 60° E 05:00:46 10° NNE visible
28 Feb 3.6 04:39:06 10° SSE 04:42:46 48° E 04:46:26 10° NNE visible
